Weather History for KAUO - November, 2013

Change the Weather History Date:

Sunday, November 24, 2013

  Actual Average Record
Temperature  
Mean Temperature 39 °F -  
Max Temperature 48 °F - 77 °F (1964)
Min Temperature 30 °F - 16 °F (1970)
Degree Days  
Heating Degree Days 26    
Month to date heating degree days 254  
Since 1 July heating degree days 290  
Moisture  
Dew Point 16 °F    
Average Humidity 42    
Maximum Humidity 60    
Minimum Humidity 25    
Precipitation  
Precipitation 0.00 in - 2.10 in (1983)
Month to date precipitation 0.80  
Year to date precipitation 40.26  
Sea Level Pressure  
Sea Level Pressure 30.36 in    
Wind  
Wind Speed 11 mph (NNE)    
Max Wind Speed 17 mph    
Max Gust Speed 24 mph    
Visibility 10 miles    
Events      
T = Trace of Precipitation, MM = Missing Value Source: NWS Daily Summary

Daily Weather History Graph

Daily Weather History Graph

Search for Another Location

Airport or City:

Trip Planner

Search our weather history database for the weather conditions in past years. The results will help you decide how hot, cold, wet, or windy it might be!

Date:

Astronomy

Nov. 24, 2013 Rise Set
Actual Time 6:19 AM CST 4:36 PM CST
Civil Twilight 5:53 AM CST 5:03 PM CST
Nautical Twilight 5:23 AM CST 5:33 PM CST
Astronomical Twilight 4:53 AM CST 6:03 PM CST
Moon 10:51 PM CST (11/24) 11:16 AM CST (11/24)
Length of Visible Light 11h 10m
Length of Day
10h 17m
Waning Gibbous, 60% of the Moon is Illuminated
Nov 24
Waning Gibbous
Nov 25
Last Quarter
Dec 2
New
Dec 9
First Quarter
Dec 17
Full

Hourly Weather History & Observations

Time (CST) Temp. Windchill Dew Point Humidity Pressure Visibility Wind Dir Wind Speed Gust Speed Precip Events Conditions
12:15 AM 39.2 °F 30.8 °F 23.0 °F 52% 30.27 in 10.0 mi North 15.0 mph - N/A   Clear
12:35 AM 39.2 °F 30.8 °F 21.2 °F 49% 30.27 in 10.0 mi North 15.0 mph 23.0 mph N/A   Clear
12:55 AM 39.2 °F 32.0 °F 21.2 °F 49% 30.28 in 10.0 mi North 11.5 mph 16.1 mph N/A   Clear
1:15 AM 39.2 °F 31.6 °F 21.2 °F 49% 30.28 in 10.0 mi North 12.7 mph 18.4 mph N/A   Clear
1:35 AM 37.4 °F 30.3 °F 21.2 °F 52% 30.28 in 10.0 mi North 10.4 mph 21.9 mph N/A   Clear
1:55 AM 37.4 °F 28.9 °F 21.2 °F 52% 30.29 in 10.0 mi North 13.8 mph 19.6 mph N/A   Clear
2:15 AM 37.4 °F 28.9 °F 21.2 °F 52% 30.29 in 10.0 mi North 13.8 mph 20.7 mph N/A   Clear
2:35 AM 37.4 °F 29.3 °F 21.2 °F 52% 30.29 in 10.0 mi North 12.7 mph 19.6 mph N/A   Clear
2:55 AM 35.6 °F 27.5 °F 19.4 °F 52% 30.29 in 10.0 mi North 11.5 mph 21.9 mph N/A   Clear
3:15 AM 35.6 °F 27.1 °F 21.2 °F 56% 30.30 in 10.0 mi North 12.7 mph 24.2 mph N/A   Clear
3:35 AM 35.6 °F 26.6 °F 19.4 °F 52% 30.30 in 10.0 mi North 13.8 mph 21.9 mph N/A   Clear
3:55 AM 33.8 °F 23.2 °F 19.4 °F 56% 30.31 in 10.0 mi North 17.3 mph 24.2 mph N/A   Clear
4:15 AM 33.8 °F 25.3 °F 17.6 °F 52% 30.32 in 10.0 mi North 11.5 mph 21.9 mph N/A   Clear
4:35 AM 33.8 °F 24.3 °F 17.6 °F 52% 30.33 in 10.0 mi North 13.8 mph 18.4 mph N/A   Clear
4:55 AM 33.8 °F 24.3 °F 17.6 °F 52% 30.33 in 10.0 mi North 13.8 mph - N/A   Clear
5:15 AM 32.0 °F 22.1 °F 17.6 °F 55% 30.34 in 10.0 mi North 13.8 mph 20.7 mph N/A   Clear
5:35 AM 32.0 °F 21.2 °F 15.8 °F 51% 30.34 in 10.0 mi North 16.1 mph 23.0 mph N/A   Clear
5:55 AM 30.2 °F 21.3 °F 15.8 °F 55% 30.35 in 10.0 mi North 10.4 mph - N/A   Clear
6:15 AM 30.2 °F 20.2 °F 17.6 °F 60% 30.36 in 10.0 mi North 12.7 mph 20.7 mph N/A   Clear
6:35 AM 30.2 °F 20.2 °F 15.8 °F 55% 30.38 in 10.0 mi North 12.7 mph 21.9 mph N/A   Clear
6:55 AM 30.2 °F 20.2 °F 17.6 °F 60% 30.38 in 10.0 mi North 12.7 mph 19.6 mph N/A   Clear
7:15 AM 30.2 °F 19.8 °F 15.8 °F 55% 30.38 in 10.0 mi North 13.8 mph 18.4 mph N/A   Clear
7:35 AM 32.0 °F 22.1 °F 15.8 °F 51% 30.40 in 10.0 mi North 13.8 mph 21.9 mph N/A   Clear
7:55 AM 33.8 °F 24.3 °F 15.8 °F 48% 30.41 in 10.0 mi North 13.8 mph - N/A   Clear
8:15 AM 33.8 °F 23.5 °F 15.8 °F 48% 30.42 in 10.0 mi NNE 16.1 mph 20.7 mph N/A   Clear
8:35 AM 35.6 °F 25.9 °F 14.0 °F 41% 30.42 in 10.0 mi North 16.1 mph 20.7 mph N/A   Clear
8:55 AM 37.4 °F 28.9 °F 14.0 °F 38% 30.43 in 10.0 mi North 13.8 mph 20.7 mph N/A   Clear
9:15 AM 39.2 °F 31.6 °F 12.2 °F 33% 30.43 in 10.0 mi NNE 12.7 mph - N/A   Clear
9:35 AM 39.2 °F 30.8 °F 14.0 °F 36% 30.43 in 10.0 mi NNE 15.0 mph 19.6 mph N/A   Clear
9:55 AM 41.0 °F 32.5 °F 12.2 °F 31% 30.43 in 10.0 mi NNE 17.3 mph - N/A   Clear
10:15 AM 41.0 °F 34.3 °F 12.2 °F 31% 30.43 in 10.0 mi North 11.5 mph 20.7 mph N/A   Clear
10:35 AM 42.8 °F 37.0 °F 14.0 °F 31% 30.41 in 10.0 mi NE 10.4 mph 16.1 mph N/A   Clear
10:55 AM 42.8 °F 36.2 °F 12.2 °F 29% 30.41 in 10.0 mi NNE 12.7 mph 17.3 mph N/A   Clear
11:15 AM 44.6 °F 38.1 °F 14.0 °F 29% 30.40 in 10.0 mi NE 13.8 mph 17.3 mph N/A   Clear
11:35 AM 44.6 °F 40.2 °F 12.2 °F 27% 30.38 in 10.0 mi NNE 8.1 mph - N/A   Clear
11:55 AM 46.4 °F 41.9 °F 12.2 °F 25% 30.36 in 10.0 mi NNE 9.2 mph - N/A   Clear
12:15 PM 46.4 °F 41.9 °F 14.0 °F 27% 30.35 in 10.0 mi NNE 9.2 mph - N/A   Clear
12:35 PM 46.4 °F 41.9 °F 12.2 °F 25% 30.34 in 10.0 mi North 9.2 mph 16.1 mph N/A   Clear
12:55 PM 48.2 °F - 14.0 °F 25% 30.34 in 10.0 mi North 11.5 mph - N/A   Clear
1:15 PM 48.2 °F - 15.8 °F 27% 30.33 in 10.0 mi ENE 11.5 mph 17.3 mph N/A   Clear
1:35 PM 48.2 °F - 14.0 °F 25% 30.33 in 10.0 mi NE 10.4 mph - N/A   Clear
1:55 PM 48.2 °F - 15.8 °F 27% 30.33 in 10.0 mi NNE 12.7 mph - N/A   Clear
2:15 PM 48.2 °F - 15.8 °F 27% 30.33 in 10.0 mi NNE 11.5 mph - N/A   Clear
2:35 PM 48.2 °F - 15.8 °F 27% 30.34 in 10.0 mi NE 10.4 mph - N/A   Clear
2:55 PM 48.2 °F - 15.8 °F 27% 30.35 in 10.0 mi NNE 11.5 mph - N/A   Clear
3:15 PM 48.2 °F - 15.8 °F 27% 30.36 in 10.0 mi North 10.4 mph - N/A   Clear
3:35 PM 46.4 °F 41.9 °F 15.8 °F 29% 30.36 in 10.0 mi NNE 9.2 mph - N/A   Clear
3:55 PM 46.4 °F 41.9 °F 15.8 °F 29% 30.36 in 10.0 mi North 9.2 mph - N/A   Clear
4:15 PM 44.6 °F 39.7 °F 15.8 °F 31% 30.36 in 10.0 mi NNE 9.2 mph - N/A   Clear
4:35 PM 42.8 °F 38.6 °F 15.8 °F 34% 30.35 in 10.0 mi NNE 6.9 mph - N/A   Clear
4:55 PM 42.8 °F 38.6 °F 15.8 °F 34% 30.35 in 10.0 mi NNE 6.9 mph - N/A   Clear
5:15 PM 41.0 °F 35.8 °F 15.8 °F 36% 30.35 in 10.0 mi NNE 8.1 mph - N/A   Clear
5:35 PM 41.0 °F 35.8 °F 15.8 °F 36% 30.36 in 10.0 mi NNE 8.1 mph - N/A   Clear
5:55 PM 39.2 °F 34.2 °F 15.8 °F 39% 30.37 in 10.0 mi NNE 6.9 mph - N/A   Clear
6:15 PM 39.2 °F 35.0 °F 15.8 °F 39% 30.37 in 10.0 mi NE 5.8 mph - N/A   Clear
6:35 PM 37.4 °F 32.8 °F 15.8 °F 41% 30.38 in 10.0 mi NNE 5.8 mph - N/A   Clear
6:55 PM 37.4 °F 32.1 °F 17.6 °F 45% 30.38 in 10.0 mi NNE 6.9 mph - N/A   Clear
7:15 PM 35.6 °F 29.9 °F 17.6 °F 48% 30.39 in 10.0 mi NNE 6.9 mph - N/A   Clear
7:35 PM 35.6 °F 29.9 °F 17.6 °F 48% 30.38 in 10.0 mi NNE 6.9 mph - N/A   Clear
7:55 PM 35.6 °F 28.6 °F 17.6 °F 48% 30.38 in 10.0 mi NNE 9.2 mph - N/A   Clear
8:15 PM 35.6 °F 28.6 °F 15.8 °F 44% 30.39 in 10.0 mi NE 9.2 mph - N/A   Clear
8:35 PM 35.6 °F 29.2 °F 15.8 °F 44% 30.40 in 10.0 mi NE 8.1 mph - N/A   Clear
8:55 PM 35.6 °F 27.5 °F 15.8 °F 44% 30.40 in 10.0 mi NE 11.5 mph - N/A   Clear
9:15 PM 35.6 °F 28.0 °F 14.0 °F 41% 30.40 in 10.0 mi NE 10.4 mph - N/A   Clear
9:35 PM 35.6 °F 28.0 °F 14.0 °F 41% 30.40 in 10.0 mi NE 10.4 mph - N/A   Clear
9:55 PM 35.6 °F 28.6 °F 14.0 °F 41% 30.40 in 10.0 mi NE 9.2 mph - N/A   Clear
10:15 PM 33.8 °F 27.7 °F 15.8 °F 48% 30.41 in 10.0 mi NE 6.9 mph - N/A   Clear
10:35 PM 33.8 °F 27.7 °F 15.8 °F 48% 30.40 in 10.0 mi NE 6.9 mph - N/A   Clear
10:55 PM 33.8 °F 27.0 °F 15.8 °F 48% 30.40 in 10.0 mi ENE 8.1 mph - N/A   Clear
11:15 PM 33.8 °F 27.0 °F 15.8 °F 48% 30.40 in 10.0 mi ENE 8.1 mph - N/A   Clear
11:35 PM 33.8 °F 27.7 °F 15.8 °F 48% 30.40 in 10.0 mi ENE 6.9 mph - N/A   Clear
11:55 PM 33.8 °F 26.4 °F 17.6 °F 52% 30.39 in 10.0 mi ENE 9.2 mph - N/A   Clear